Regional Weather Roundup
Issued by NWS Sterling, VA

Home | Current Version | Previous Version | Graphics & Text | Print | Product List | Glossary On
Versions: 1 2 3 4 5 6 7 8 9 10 11 12 13 14 15 16 17 18 19 20 21 22 23 24 25 26 27 28 29 30 31 32 33 34 35 36 37 38 39 40 41 42 43 44 45 46 47 48 49 50
022
ASUS41 KLWX 280010
RWRLWX

REGIONAL WEATHER ROUNDUP
NATIONAL WEATHER SERVICE BALTIMORE MD/WASHINGTON DC
700 PM EST MON FEB 27 2017

Note: "FAIR" indicates few or no clouds below 12,000 feet
with no significant weather and/or obstructions to visibility.
 TC=TEMPERATURE CELSIUS

 * =Non NWS site. Station does not report precipitation (e.g. rain,
    snow, etc.), thunder, or fog.

DCZ001-MDZ009-015-VAZ040>042-051-053>054-280100-
WASHINGTON METRO

CITY           SKY/WX    TMP DP  RH WIND       PRES   REMARKS
WASHINGTON NAT MOCLDY    53  33  46 S8        30.39S
DULLES         CLOUDY    51  25  36 SE6       30.36F
ANDREWS AFB    CLOUDY    51  29  44 S8        30.37S
FT BELVOIR     CLOUDY    52  31  45 SE6       30.38S
QUANTICO       CLOUDY    48  38  68 S7        30.39S
COLLEGE PARK*  CLOUDY    50  28  43 CALM      30.38S
LEESBURG*      CLOUDY    52  32  46 MISG      30.37S
MANASSAS*      CLOUDY    53  27  36 CALM      30.37S
GAITHERSBURG*  MOCLDY    48  23  37 SE5       30.41S

$$

MDZ006>007-011-014-280100-
BALTIMORE METRO

CITY           SKY/WX    TMP DP  RH WIND       PRES   REMARKS
BWI AIRPORT    CLOUDY    49  34  56 SE3       30.38S
MD SCIENCE CTR   N/A     51  34  52 MISG      30.39S
ANNAPOLIS      CLOUDY    50  35  56 S6        30.40S
FORT MEADE*    CLOUDY    46  32  57 SE6       30.41R

$$

MDZ012-015-019>023-280100-
MARYLAND EASTERN SHORE

CITY           SKY/WX    TMP DP  RH WIND       PRES   REMARKS
OCEAN CITY     CLOUDY    47  35  63 E3        30.45S
SALISBURY      CLOUDY    50  31  48 E5        30.43S
BAY BRIDGE AP* CLOUDY    50  34  53 S8        30.40R
CAMBRIDGE*     CLOUDY    48  37  66 SE6       30.41F
EASTON*        CLOUDY    50  34  53 SE5       30.44F

$$

MDZ017>025-280100-
SOUTHERN MARYLAND

CITY           SKY/WX    TMP DP  RH WIND       PRES   REMARKS
PATUXENT RIVER CLOUDY    47  39  74 SE6       30.41S
ST INIGOES     CLOUDY    52  28  39 E6        30.40S
LEONARDTOWN*   CLOUDY    50  34  53 CALM      30.42F

$$

MDZ003>005-280100-
NORTH CENTRAL MARYLAND

CITY           SKY/WX    TMP DP  RH WIND       PRES   REMARKS
FREDERICK*     PTCLDY    48  28  46 CALM      30.38F
HAGERSTOWN APT PTCLDY    48  25  40 SE3       30.34S
WESTMINSTER*   CLOUDY    48  27  43 SE5       30.35F

$$

MDZ501>502-280100-
WESTERN MARYLAND

CITY           SKY/WX    TMP DP  RH WIND       PRES   REMARKS
OAKLAND*       CLOUDY    36  34  93 SE8       30.27S
CUMBERLAND*    PTCLDY    46  36  66 CALM      30.36S

$$

VAZ025>031-280100-
SHENANDOAH VALLEY

CITY           SKY/WX    TMP DP  RH WIND       PRES   REMARKS
WINCHESTER*    CLOUDY    48  23  37 SE6       30.33S
FRONT ROYAL*   CLOUDY    52  25  35 S6        30.32S
LURAY*         CLOUDY    52  28  40 S3        30.33S
NEW MARKET*    CLOUDY    48  24  39 SW5       30.32S
STAUNTON*      CLOUDY    45  31  57 CALM      30.36R
WAYNESBORO*    CLOUDY    49  21  32 SE3       30.34R

$$

WVZ021-048>050-054>055-280100-
EASTERN WEST VIRGINIA PANHANDLE

CITY           SKY/WX    TMP DP  RH WIND       PRES   REMARKS
MARTINSBURG    MOCLDY    49  23  36 SE3       30.33F
PETERSBURG*    CLOUDY    54  27  35 S7        30.31S

$$

VAZ036>039-050-280100-
CENTRAL FOOTHILLS

CITY           SKY/WX    TMP DP  RH WIND       PRES   REMARKS
CHARLOTTESVILL CLOUDY    54  27  35 W3        30.36R
CULPEPER*      CLOUDY    50  31  48 CALM      30.37F
ORANGE*        CLOUDY    50  32  50 CALM      30.37S
GORDONSVILLE*  CLOUDY    50  33  50 S3        30.36R
WARRENTON*     CLOUDY    54  19  25 SE3       30.35F

$$

VAZ055>057-280100-
NORTH AND CENTRAL PIEDMONT

CITY           SKY/WX    TMP DP  RH WIND       PRES   REMARKS
FREDERICKSBRG* CLOUDY    55  31  40 CALM      30.36F
STAFFORD*      CLOUDY    51  31  44 CALM      30.40F

$$

NCZ024-NYZ072-PAZ021-071-VAZ022-071-280100-
OTHER REGIONAL OBSERVATIONS

CITY           SKY/WX    TMP DP  RH WIND       PRES   REMARKS
NEW YORK CITY  CLEAR     51  27  39 MISG      30.41R
PHILADELPHIA   CLOUDY    51  28  41 S6        30.41F
PITTSBURGH     CLOUDY    41  39  93 S8        30.27R
ROANOKE        CLOUDY    53  26  35 CALM      30.34S
RICHMOND       CLOUDY    55  30  38 E6        30.37S
RALEIGH        CLOUDY    61  28  28 S3        30.33S

$$

ANZ530>537-280100-
MARINE OBSERVATIONS

STATION/POSITION TIME  TEMP    WIND        PRES
                       AIR SEA DIR/SP/G
                 (UTC) (F)     (DEG/KT/KT) (MB)
THOMAS PT LIGHT  0000   48 45  160/ 11/ 12   N/A
BALT KEY BRIDGE  2348   48     110/  6/  7 1029.0F
COVE POINT       2348   48     180/ 10/ 11 1030.2F
LEWISETTA        2348   49 49  130/  5/  7 1029.5R
SOLOMONS ISLAND  2348   48 46   90/  5/  6   N/A
PINEY POINT      2348          140/  8/  8   N/A

$$





USA.gov is the U.S. government's official web portal to all federal, state and local government web resources and services.